SL-8 DEB, 1479

Orbit data source: Space-Track

SL-8 DEB, 1479 is space debris in LEO originally from a launch on Mon, 15 Mar 1965 UTC launched from the Tyuratam Missile And Space Complex (TTMTR). Debris objects in space refer to the collection of defunct objects orbiting the Earth. Examples of debris include non-operational satellites, rocket bodies, and fragments generated from explosions, collisions, or faulty payload assembly.

Loading next visibility...
Identifier
1479, 1965-020BD
Orbit
LEO
Country
Flag of CISCIS
Related business
Manufacturer
Unknown
Mission
Spacecraft
Bus & Motor
Unknown
Mass
Unknown
Launch date (UTC)
1965-03-15 (61 years ago)
Launch vehicle
Unknown
Launch site
Tyuratam Missile And Space Complex (TTMTR)
Object type
Payload
Rocket body
Debris
Shape & HBR
Unknown
Radar Cross Section
Small (<0.1 m²)

Expand to show TLE details & history
Last TLE update: 1 day ago

TLE from 1 day ago
0 SL-8 DEB
1 01479U 65020BD  25259.51507163  .00000105  00000-0  41855-3 0  9997
2 01479  56.0332 339.9528 0740920  47.4849 318.6267 12.59820306761877
Epoch: 2025-09-16T12:21Z
TLE epoch observation values (Epoch: 2025-09-16T12:21:42.188Z)
Latitude
-0.00008°
Longitude
158.82269°
Altitude
1,011.298 km
Speed
7.539 km/s
True Right ascension
22h 39m 48s
True Declination
0° 00' 00"
Sunlit
Object was in full shadow at epoch
Visualization orbit readout
Latitude
Unknown
Longitude
Unknown
Altitude
Unknown
Speed
Unknown
Apparent Right ascension
Unknown
Apparent Declination
Unknown
Sunlit
N/A
Visualization observer readout
Local Sidereal Time
12:27:58
Azimuth
Unknown
Elevation
Unknown
Doppler factor
Unknown
Orbital elements
Apogee altitude
2,001.55 km
Perigee altitude
845.471 km
Semi-major axis
7,801.647 km
Eccentricity
0.07409
Inclination
56.0332°
RAAN
339.9528°
Arg. of periapsis
47.4849°
True anomaly
312.60832°
Mean anomaly
318.6267°
Eccentric anomaly
315.65968°
Mean motion
3.14966 °/min
Orbital period
114.3 mins
BSTAR
0.00041855
Loading maneuver chart data...
Computing Atmospheric mass density...
Loading historical data...
Loading historical data...
Loading historical data...
Loading historical data...
Loading historical data...
Loading historical data...
Loading historical data...

Documentation

Showing up to 5 results
|